Weather Roundup
Issued by NWS Corpus Christi, TX

Home | Current Version | Previous Version | Text Only | Print | Product List | Glossary Off
Versions: 1 2 3 4 5 6 7 8 9 10 11 12 13 14 15 16 17 18 19 20 21 22 23 24 25 26 27 28 29 30 31 32 33 34 35 36 37 38 39 40 41 42 43 44 45 46 47 48 49 50

000
ASUS44 KCRP 250210
HRRCRP

SOUTH TEXAS REGIONAL WEATHER ROUNDUP
NATIONAL WEATHER SERVICE CORPUS CHRISTI TX
900 PM CDT SUN JUL 24 2016


TXZ229>244-250300-
...CORPUS CHRISTI AREA OBSERVATIONS...

CITY           SKY/WX    TMP DP  RH WIND       PRES   REMARKS
CORPUS CHRISTI MOCLDY    85  76  74 SE13      29.89R HX  94
NAS CORPUS CHR MOCLDY    85  79  82 SE17G23   29.89S HX  98
ROCKPORT       PTCLDY    86  76  71 SE13      29.89S HX  96
KINGSVILLE NAS MOCLDY    85  79  82 SE12      29.88R HX  98
ALICE          CLEAR     86  72  62 SE15G22   29.88R HX  92
FALFURRIAS     CLEAR     87  73  61 SE12G18   29.87R HX  95
$$

...VICTORIA AREA OBSERVATIONS...

CITY           SKY/WX    TMP DP  RH WIND       PRES   REMARKS
VICTORIA       PTCLDY    85  74  69 S12       29.91R HX  92
BEEVILLE       FAIR      86  76  70 SE12G18   29.90R HX  96
PLEASANTON     CLEAR     92  64  39 SE14G21   29.87R HX  94
SAN ANTONIO    PTCLDY    93  68  43 SE13      29.89R HX  97
$$

...LAREDO AREA OBSERVATIONS...

CITY           SKY/WX    TMP DP  RH WIND       PRES   REMARKS
LAREDO         CLEAR     96  71  44 E21       29.81R HX 103
COTULLA        PTCLDY    95  69  42 SE20G31   29.84R HX 100
DEL RIO        CLEAR     98  62  30 E13       29.81R HX  99
MCALLEN        CLEAR     90  73  57 SE22      29.87R HX  98
HEBBRONVILLE   CLEAR     90  72  54 SE18      29.88R HX  97
$$

...OTHER TEXAS OBSERVATIONS...

CITY           SKY/WX    TMP DP  RH WIND       PRES   REMARKS
BROWNSVILLE    CLEAR     85  77  77 SE14      29.90R HX  95
HOUSTON        CLOUDY    89  73  59 S8        29.91R HX  97
COL. STATION   CLEAR     91  73  55 S10       29.90R HX  99
AUSTIN         MOCLDY    92  69  47 S6        29.88R HX  97
WACO           CLEAR     91  67  44 SE7       29.89R HX  94
FORT WORTH     PTCLDY    92  69  47 SE9       29.89R HX  97
WICHITA FALLS  CLEAR     89  70  53 SE9       29.90R HX  94
LUBBOCK        PTCLDY    90  55  30 S8        30.00R
EL PASO        TSTM      99  44  15 N17G26    29.90R HX  95
$$

...MARINE OBSERVATIONS...

STATION/POSITION TIME  SKY/WX   TEMP    WIND        PRES    VSBY  WAVE   SWELL
                                AIR SEA DIR/SP/G                  HT/PER HT/PER
                 (UTC)          (F)     (DEG/KT/KT) (MB)    (MI)  (FT/S) (FT/S)
PORT ARANSAS     0200            85 89  130/ 17/ 18 1012.6R
BUOY 90 E PORT A 0150            86 87  130/ 10/ 12 1013.2R         2/ 4
BUOY 45 SE BAFFI 0150            85 85  160/ 14/ 16 1012.0S         2/ 5
BUOY 200 E PT IS 0150            86 87  180/  4/  6 1014.2R         2/ 5   2/ 5
BUOY 15 E GALVES 0150            87 90  180/ 10/ 12 1013.4R         2/ 4
$$



USA.gov is the U.S. government's official web portal to all federal, state and local government web resources and services.